FW0518 Weather Reports


time (UTC)temp
C
wind
direction
speed
KPH
gust
KPH
rain 1hr
cm
rain 24hr
cm
rain mn
cm
humidity
%
barometer
mb
20260507163009 16 259 16.1 27.4 0.00 0.00 0.00 63 1016.2
20260507161508 15 200 14.5 35.4 0.00 0.00 0.00 63 1016.2
20260507160007 15 270 17.7 32.2 0.00 0.00 0.00 63 1016.3
20260507154504 14 243 19.3 32.2 0.00 0.00 0.00 64 1016.6
20260507153002 14 213 16.1 30.6 0.00 0.00 0.00 67 1016.6
20260507151606 14 250 14.5 25.7 0.00 0.00 0.00 66 1016.9
20260507150058 13 237 12.9 29.0 0.00 0.00 0.00 68 1017.0
20260507144600 13 238 12.9 24.1 0.00 0.00 0.00 69 1017.2
20260507143100 12 203 9.7 22.5 0.00 0.00 0.00 71 1017.3
20260507141554 12 201 11.3 22.5 0.00 0.00 0.00 72 1017.2
20260507140049 12 229 12.9 19.3 0.00 0.00 0.00 72 1017.4
20260507134548 11 222 9.7 19.3 0.00 0.00 0.00 74 1017.4
20260507133048 11 250 8.0 19.3 0.00 0.00 0.00 76 1017.5
20260507131541 10 207 8.0 19.3 0.00 0.00 0.00 77 1017.5
20260507130042 9 247 11.3 19.3 0.00 0.00 0.00 79 1017.5
20260507124545 8 226 6.4 14.5 0.00 0.00 0.00 81 1017.4
20260507123036 8 216 9.7 16.1 0.00 0.00 0.00 82 1017.5
20260507121536 7 238 4.8 12.9 0.00 0.00 0.00 84 1017.5
20260507120034 7 211 6.4 12.9 0.00 0.00 0.00 84 1017.5
20260507114554 7 200 6.4 12.9 0.00 0.00 0.00 84 1017.5
20260507113057 7 229 4.8 11.3 0.00 0.00 0.00 83 1017.5
20260507111537 7 240 6.4 11.3 0.00 0.00 0.00 83 1017.5
20260507110027 7 212 6.4 12.9 0.00 0.00 0.00 82 1017.4
20260507104537 7 212 8.0 14.5 0.00 0.00 0.00 81 1017.3
20260507103123 7 217 6.4 12.9 0.00 0.00 0.00 81 1017.4
20260507101524 7 216 6.4 12.9 0.00 0.00 0.00 80 1017.5
20260507100021 7 236 6.4 14.5 0.00 0.00 0.00 80 1017.6
20260507094520 7 229 4.8 14.5 0.00 0.00 0.00 79 1017.6
20260507093017 7 226 8.0 16.1 0.00 0.00 0.00 79 1017.6
20260507091515 7 196 8.0 12.9 0.00 0.00 0.00 78 1017.7
20260507090013 8 231 6.4 14.5 0.00 0.00 0.00 78 1017.8
20260507084509 8 209 6.4 16.1 0.00 0.00 0.00 77 1018.0
20260507083008 8 221 6.4 14.5 0.00 0.00 0.00 77 1018.1
20260507081508 8 215 6.4 11.3 0.00 0.00 0.00 78 1018.1
20260507080006 8 225 6.4 14.5 0.00 0.00 0.00 77 1018.1
20260507074504 8 248 6.4 11.3 0.00 0.00 0.00 77 1018.1
20260507073001 8 210 6.4 9.7 0.00 0.00 0.00 75 1018.0
20260507071558 8 206 6.4 11.3 0.00 0.00 0.00 74 1018.3
20260507064555 8 211 6.4 9.7 0.00 0.00 0.00 72 1018.5
20260507063049 9 231 6.4 12.9 0.00 0.00 0.00 70 1018.7
20260507061548 9 204 6.4 12.9 0.00 0.00 0.00 69 1018.8
20260507060058 9 212 4.8 11.3 0.00 0.00 0.00 68 1018.8
20260507054544 10 198 4.8 9.7 0.00 0.00 0.00 67 1018.9
20260507053042 9 193 6.4 9.7 0.00 0.00 0.00 67 1018.8
20260507051539 10 188 6.4 11.3 0.00 0.00 0.00 62 1018.8
20260507050041 10 194 4.8 11.3 0.00 0.00 0.00 61 1018.9
20260507044536 10 202 8.0 12.9 0.00 0.00 0.00 57 1018.9
20260507043045 10 188 3.2 9.7 0.00 0.00 0.00 58 1019.0
20260507041535 10 207 3.2 9.7 0.00 0.00 0.00 57 1019.1
20260507040033 10 204 4.8 9.7 0.00 0.00 0.00 55 1018.9
20260507034536 11 190 4.8 8.0 0.00 0.00 0.00 54 1018.9
20260507033034 11 198 3.2 9.7 0.00 0.00 0.00 51 1019.1
20260507031532 11 198 4.8 8.0 0.00 0.00 0.00 50 1019.1
20260507030033 11 200 3.2 8.0 0.00 0.00 0.00 51 1019.0
20260507024531 11 187 3.2 8.0 0.00 0.00 0.00 51 1018.8
20260507023030 11 195 4.8 6.4 0.00 0.00 0.00 48 1018.7
20260507021529 12 198 3.2 6.4 0.00 0.00 0.00 48 1018.6
20260507020044 12 199 3.2 6.4 0.00 0.00 0.00 48 1018.3
20260507014531 12 243 3.2 4.8 0.00 0.00 0.00 50 1018.2
20260507013028 12 300 0.0 0.0 0.00 0.00 0.00 48 1018.2
20260507011539 12 300 0.0 0.0 0.00 0.00 0.00 48 1018.2
20260507010033 13 300 0.0 0.0 0.00 0.00 0.00 55 1018.2
20260507004526 15 300 0.0 0.0 0.00 0.00 0.00 50 1018.1
20260507003025 15 300 0.0 6.4 0.00 0.00 0.00 47 1018.0
20260507001555 15 333 1.6 4.8 0.00 0.00 0.00 43 1018.0
20260507000025 15 281 0.0 6.4 0.00 0.00 0.00 42 1018.2
20260506234523 15 325 1.6 8.0 0.00 0.00 0.00 43 1018.2
20260506233022 15 307 3.2 12.9 0.00 0.00 0.00 44 1018.2
20260506231521 15 305 4.8 11.3 0.00 0.00 0.00 41 1018.3
20260506230020 15 276 6.4 16.1 0.00 0.00 0.00 40 1018.3
20260506224519 15 345 8.0 16.1 0.00 0.00 0.00 39 1018.3
20260506223024 15 318 6.4 14.5 0.00 0.00 0.00 41 1018.1
20260506221515 15 333 6.4 17.7 0.00 0.00 0.00 41 1018.2
20260506220013 15 24 1.6 12.9 0.00 0.00 0.00 40 1018.3
20260506214511 14 12 4.8 14.5 0.00 0.00 0.00 41 1018.5
20260506213010 15 26 1.6 16.1 0.00 0.00 0.00 44 1018.7
20260506211509 15 292 4.8 17.7 0.00 0.00 0.00 42 1018.9
20260506210009 15 1 6.4 12.9 0.00 0.00 0.00 42 1019.2
20260506204505 14 327 6.4 19.3 0.00 0.00 0.00 44 1019.3
20260506203003 14 314 8.0 19.3 0.00 0.00 0.00 40 1019.4
20260506201503 14 360 4.8 14.5 0.00 0.00 0.00 43 1019.7
20260506200003 14 321 6.4 12.9 0.00 0.00 0.00 44 1019.9
20260506194505 14 344 4.8 12.9 0.00 0.00 0.00 46 1019.8
20260506193107 14 325 6.4 17.7 0.00 0.00 0.00 45 1019.8
20260506191559 13 360 1.6 14.5 0.00 0.00 0.00 46 1019.8
20260506190057 13 347 8.0 16.1 0.00 0.00 0.00 44 1019.9
20260506184556 13 20 8.0 16.1 0.00 0.00 0.00 47 1020.1
20260506183103 13 328 8.0 20.9 0.00 0.00 0.00 45 1020.2
20260506181557 13 274 3.2 16.1 0.00 0.00 0.00 47 1020.2
20260506180053 13 56 4.8 14.5 0.00 0.00 0.00 47 1020.5
20260506174549 13 28 6.4 17.7 0.00 0.10 0.00 46 1020.6
20260506173054 12 338 8.0 17.7 0.00 0.10 0.00 44 1020.7
20260506171545 12 353 4.8 12.9 0.00 0.10 0.00 51 1020.8
20260506170047 11 316 6.4 12.9 0.00 0.10 0.00 51 1020.9
20260506164555 11 307 4.8 14.5 0.00 0.13 0.00 51 1021.0